When you browse on this site, cookies collect data to enhance your experience and personalize the content and advertising you see.
Visit our Privacy Policy to learn more. By continuing to use the site, you agree to this use of cookies and data.
  • In Romania
  • List of Countries
  • For 7 days
  • Water Temperature
  • Satellite Maps
  • Weather Map
  • Weather Widgets
  • user-avatar
    Login

    Hourly Weather Hamar

    Today, 26 May, Sunday

    Time Temperature Precipitation Wind Pressure Humidity
    00:00 +8°C° 0.6 mm 2 mps 732 mmHg 94%
    01:00 +8°C° 0.6 mm 3 mps 731 mmHg 93%
    02:00 +7°C° 0.1 mm 3 mps 731 mmHg 92%
    03:00 +7°C° 0.1 mm 3 mps 730 mmHg 90%
    04:00 +5°C° 0.1 mm 3 mps 730 mmHg 89%
    05:00 +5°C° 0.5 mm 4 mps 730 mmHg 88%
    06:00 +4°C° 0.5 mm 4 mps 730 mmHg 88%
    07:00 +4°C° 0.5 mm 4 mps 730 mmHg 87%
    08:00 +3°C° 0.3 mm 5 mps 730 mmHg 84%
    09:00 +5°C° 0.3 mm 5 mps 730 mmHg 81%
    10:00 +5°C° 0.3 mm 5 mps 731 mmHg 78%
    11:00 +7°C° 0 mm 5 mps 731 mmHg 68%
    12:00 +8°C° 0 mm 5 mps 731 mmHg 59%
    13:00 +10°C° 0 mm 5 mps 731 mmHg 49%
    14:00 +11°C° 0 mm 4 mps 732 mmHg 48%
    15:00 +11°C° 0 mm 4 mps 732 mmHg 48%
    16:00 +12°C° 0 mm 4 mps 732 mmHg 47%
    17:00 +11°C° 0 mm 3 mps 732 mmHg 49%
    18:00 +11°C° 0 mm 3 mps 732 mmHg 52%
    19:00 +10°C° 0 mm 2 mps 732 mmHg 54%
    20:00 +8°C° 0 mm 2 mps 732 mmHg 61%
    21:00 +8°C° 0 mm 1 mps 732 mmHg 68%
    22:00 +6°C° 0 mm 1 mps 732 mmHg 75%
    23:00 +6°C° 0.2 mm 1 mps 732 mmHg 77%

    Tomorrow, 27 May, Monday

    Time Temperature Precipitation Wind Pressure Humidity
    00:00 +6°C° 0.2 mm 1 mps 732 mmHg 79%
    01:00 +6°C° 0.2 mm 1 mps 732 mmHg 81%
    02:00 +5°C° 0.7 mm 1 mps 732 mmHg 84%
    03:00 +5°C° 0.7 mm 1 mps 732 mmHg 86%
    04:00 +5°C° 0.7 mm 1 mps 732 mmHg 89%
    05:00 +5°C° 0.9 mm 1 mps 732 mmHg 89%
    06:00 +5°C° 0.9 mm 1 mps 731 mmHg 89%
    07:00 +5°C° 0.9 mm 1 mps 731 mmHg 90%
    08:00 +6°C° 0.7 mm 1 mps 731 mmHg 89%
    09:00 +6°C° 0.7 mm 1 mps 731 mmHg 89%
    10:00 +6°C° 0.7 mm 1 mps 731 mmHg 89%
    11:00 +8°C° 0.1 mm 1 mps 731 mmHg 86%
    12:00 +9°C° 0.1 mm 1 mps 731 mmHg 83%
    13:00 +10°C° 0.1 mm 1 mps 731 mmHg 79%
    14:00 +10°C° 0 mm 1 mps 731 mmHg 77%
    15:00 +10°C° 0 mm 0 mps 731 mmHg 74%
    16:00 +10°C° 0 mm 0 mps 731 mmHg 72%
    17:00 +11°C° 0 mm 1 mps 731 mmHg 74%
    18:00 +11°C° 0 mm 1 mps 731 mmHg 76%
    19:00 +11°C° 0 mm 1 mps 731 mmHg 79%
    20:00 +9°C° 0 mm 1 mps 731 mmHg 84%
    21:00 +7°C° 0 mm 1 mps 731 mmHg 89%
    22:00 +6°C° 0 mm 1 mps 732 mmHg 95%
    23:00 +5°C° 0.1 mm 1 mps 732 mmHg 95%

    Day after tomorrow, 28 May, Tuesday

    Time Temperature Precipitation Wind Pressure Humidity
    00:00 +4°C° 0.1 mm 0 mps 732 mmHg 96%
    01:00 +3°C° 0.1 mm 0 mps 732 mmHg 96%
    02:00 +3°C° 0.1 mm 0 mps 732 mmHg 97%
    03:00 +3°C° 0.1 mm 0 mps 732 mmHg 97%
    04:00 +3°C° 0.1 mm 0 mps 732 mmHg 97%
    05:00 +5°C° 0 mm 0 mps 732 mmHg 94%
    06:00 +6°C° 0 mm 0 mps 732 mmHg 92%
    07:00 +7°C° 0 mm 0 mps 732 mmHg 90%
    08:00 +9°C° 0 mm 1 mps 732 mmHg 87%
    09:00 +10°C° 0 mm 1 mps 732 mmHg 84%
    10:00 +11°C° 0 mm 1 mps 732 mmHg 81%
    11:00 +12°C° 0.5 mm 1 mps 732 mmHg 77%
    12:00 +13°C° 0.5 mm 1 mps 732 mmHg 74%
    13:00 +14°C° 0.5 mm 2 mps 732 mmHg 70%
    14:00 +14°C° 0.8 mm 1 mps 732 mmHg 71%
    15:00 +13°C° 0.8 mm 1 mps 732 mmHg 72%
    16:00 +13°C° 0.8 mm 1 mps 732 mmHg 73%
    17:00 +12°C° 0.9 mm 1 mps 732 mmHg 78%
    18:00 +10°C° 0.9 mm 2 mps 732 mmHg 82%
    19:00 +9°C° 0.9 mm 2 mps 732 mmHg 87%
    20:00 +8°C° 0.3 mm 2 mps 732 mmHg 89%
    21:00 +5°C° 0.3 mm 3 mps 733 mmHg 90%
    22:00 +3°C° 0.3 mm 3 mps 733 mmHg 92%
    23:00 +3°C° 0.2 mm 3 mps 733 mmHg 92%

    29 May, Wednesday

    Time Temperature Precipitation Wind Pressure Humidity
    00:00 +3°C° 0.2 mm 3 mps 734 mmHg 91%
    01:00 +2°C° 0.2 mm 3 mps 734 mmHg 91%
    02:00 +2°C° 0.4 mm 3 mps 734 mmHg 90%
    03:00 +1°C° 0.4 mm 4 mps 734 mmHg 89%
    04:00 0°C° 0.4 mm 4 mps 735 mmHg 88%
    05:00 +1°C° 0.1 mm 4 mps 735 mmHg 83%
    06:00 +3°C° 0.1 mm 3 mps 735 mmHg 78%
    07:00 +3°C° 0.1 mm 3 mps 736 mmHg 74%
    08:00 +5°C° 0 mm 3 mps 736 mmHg 66%
    09:00 +7°C° 0 mm 2 mps 736 mmHg 59%
    10:00 +10°C° 0 mm 1 mps 736 mmHg 52%
    11:00 +10°C° 0 mm 2 mps 736 mmHg 49%
    12:00 +11°C° 0 mm 3 mps 736 mmHg 46%
    13:00 +11°C° 0 mm 3 mps 736 mmHg 43%
    14:00 +11°C° 0.4 mm 3 mps 736 mmHg 47%
    15:00 +11°C° 0.4 mm 4 mps 736 mmHg 52%
    16:00 +10°C° 0.4 mm 4 mps 735 mmHg 57%
    17:00 +10°C° 0 mm 4 mps 736 mmHg 55%
    18:00 +9°C° 0 mm 3 mps 736 mmHg 52%
    19:00 +9°C° 0 mm 3 mps 736 mmHg 50%
    20:00 +7°C° 0 mm 3 mps 736 mmHg 55%
    21:00 +5°C° 0 mm 2 mps 737 mmHg 60%
    22:00 +3°C° 0 mm 2 mps 737 mmHg 66%
    23:00 +2°C° 0 mm 2 mps 738 mmHg 67%

    30 May, Thursday

    Time Temperature Precipitation Wind Pressure Humidity
    00:00 +1°C° 0 mm 2 mps 738 mmHg 69%
    01:00 -1°C° 0 mm 2 mps 738 mmHg 71%
    02:00 +1°C° 0 mm 1 mps 738 mmHg 74%
    03:00 +1°C° 0 mm 1 mps 738 mmHg 76%
    04:00 +1°C° 0 mm 1 mps 738 mmHg 78%
    05:00 +2°C° 0 mm 2 mps 738 mmHg 69%
    06:00 +4°C° 0 mm 2 mps 738 mmHg 60%
    07:00 +5°C° 0 mm 3 mps 738 mmHg 51%
    08:00 +7°C° 0.1 mm 3 mps 738 mmHg 46%
    09:00 +8°C° 0.1 mm 4 mps 738 mmHg 42%
    10:00 +10°C° 0.1 mm 4 mps 738 mmHg 37%
    11:00 +10°C° 0.2 mm 4 mps 738 mmHg 38%
    12:00 +10°C° 0.2 mm 4 mps 738 mmHg 40%
    13:00 +10°C° 0.2 mm 5 mps 738 mmHg 41%
    14:00 +11°C° 0.3 mm 4 mps 738 mmHg 41%
    15:00 +11°C° 0.3 mm 4 mps 738 mmHg 41%
    16:00 +11°C° 0.3 mm 3 mps 738 mmHg 41%
    17:00 +11°C° 0 mm 3 mps 739 mmHg 43%
    18:00 +10°C° 0 mm 3 mps 739 mmHg 46%
    19:00 +9°C° 0 mm 3 mps 740 mmHg 48%
    20:00 +7°C° 0 mm 2 mps 740 mmHg 56%
    21:00 +5°C° 0 mm 2 mps 741 mmHg 64%
    22:00 +3°C° 0 mm 2 mps 741 mmHg 72%
    23:00 +3°C° 0 mm 1 mps 742 mmHg 74%

    31 May, Friday

    Time Temperature Precipitation Wind Pressure Humidity
    00:00 +2°C° 0 mm 1 mps 742 mmHg 76%
    01:00 +1°C° 0 mm 1 mps 743 mmHg 79%
    02:00 +1°C° 0 mm 1 mps 743 mmHg 78%
    03:00 +1°C° 0 mm 1 mps 743 mmHg 77%
    04:00 +1°C° 0 mm 1 mps 744 mmHg 76%
    05:00 +4°C° 0 mm 1 mps 744 mmHg 68%
    06:00 +6°C° 0 mm 1 mps 744 mmHg 60%
    07:00 +8°C° 0 mm 1 mps 744 mmHg 52%
    08:00 +8°C° 0 mm 2 mps 744 mmHg 47%
    09:00 +10°C° 0 mm 2 mps 744 mmHg 43%
    10:00 +12°C° 0 mm 2 mps 744 mmHg 38%
    11:00 +12°C° 0 mm 2 mps 744 mmHg 37%
    12:00 +13°C° 0 mm 2 mps 743 mmHg 37%
    13:00 +13°C° 0 mm 2 mps 743 mmHg 36%
    14:00 +13°C° 0 mm 2 mps 743 mmHg 37%
    15:00 +13°C° 0 mm 2 mps 743 mmHg 37%
    16:00 +14°C° 0 mm 2 mps 743 mmHg 37%
    17:00 +13°C° 0 mm 2 mps 743 mmHg 44%
    18:00 +12°C° 0 mm 1 mps 743 mmHg 51%
    19:00 +11°C° 0 mm 1 mps 743 mmHg 58%
    20:00 +9°C° 0 mm 1 mps 743 mmHg 64%
    21:00 +7°C° 0 mm 1 mps 743 mmHg 69%
    22:00 +5°C° 0 mm 1 mps 743 mmHg 74%
    23:00 +5°C° 0 mm 1 mps 743 mmHg 76%
    Show more